Location: Newark
(34.9500°N, 139.9667°E)
Time: 12:24:47
(UTC+00:00)

Altair - Pass Details

Date: 14 December 2019
Orbit: 1502 x 1682 km, 47.2° (Epoch: 26 January)

Event Time Altitude Azimuth Distance (km) Brightness Sun altitude
Exits shadow 19:53:32 12° 235° (SW) 3,478 9.0 -21.2°
Drops below altitude 10° 19:56:24 10° 216° (SW) 3,663 9.3 -20.6°
Sets 20:02:05 0° 189° (S) 4,669 10.1 -19.5°
